Location: Ariel
(45.9570°N, 122.5700°W)
Time: 20:14:10
(UTC-07:00)

Altair - Pass Details

Date: 27 July 2019
Orbit: 1501 x 1683 km, 47.2° (Epoch: 24 August)

Event Time Altitude Azimuth Distance (km) Brightness Sun altitude
Rises 12:53:00 0° 254° (WSW) 4,658 10.1 62.7°
Reaches altitude 10° 12:56:02 10° 255° (WSW) 3,665 9.7 62.8°
Maximum altitude 13:05:16 90° 190° (S) 1,506 8.9 63.1°
Drops below altitude 10° 13:14:31 10° 78° (ENE) 3,675 9.6 63.2°
Sets 13:17:34 0° 79° (ENE) 4,672 10.0 63.2°
